Regional Weather Roundup
Issued by NWS

Home | Current Version | Previous Version | Text Only | Print | Product List | Glossary On
Versions: 1 2 3 4 5 6 7 8 9 10 11 12 13 14 15 16 17 18 19 20 21 22 23 24 25 26 27 28 29 30 31 32 33 34 35 36 37 38 39 40 41 42 43 44 45 46 47 48 49 50
000
ASUS43 KLOT 170600
RWRIL

ILLINOIS REGIONAL WEATHER ROUNDUP
NATIONAL WEATHER SERVICE CHICAGO/ROMEOVILLE IL
100 AM CDT THU APR 17 2014

NOTE: "FAIR" INDICATES FEW OR NO CLOUDS BELOW 12,000 FEET WITH NO
SIGNIFICANT WEATHER AND/OR OBSTRUCTIONS TO VISIBILITY.

* THESE STATIONS ARE NOT UNDER NWS QUALITY CONTROL. THEY ALSO MAY NOT
  REPORT WEATHER SUCH AS PRECIPITATION OR FOG.

ILZ001-002-007-009-015-016-024-170700-
NORTHWEST ILLINOIS

CITY           SKY/WX    TMP DP  RH WIND       PRES   REMARKS
MOLINE         FAIR      46  28  49 S16G26    30.00F
6HR MIN TEMP:  46; 6HR MAX TEMP:  53;

STERLING*      CLOUDY    45  30  57 SE9G16    30.06S
$$

ILZ003-004-008-010-011-017-018-170700-
NORTH CENTRAL ILLINOIS

CITY           SKY/WX    TMP DP  RH WIND       PRES   REMARKS
ROCKFORD       CLOUDY    43  28  55 SE18G24   30.11S
6HR MIN TEMP:  42; 6HR MAX TEMP:  50;

$$

ILZ005-006-012>014-019>023-170700-
NORTHEAST ILLINOIS

CITY           SKY/WX    TMP DP  RH WIND       PRES   REMARKS
CHICAGO-OHARE  MOCLDY    43  23  45 SE14      30.15F
6HR MIN TEMP:  43; 6HR MAX TEMP:  50;

CHICAGO-MIDWAY MOCLDY    44  25  47 SE13G23   30.17F
6HR MIN TEMP:  44; 6HR MAX TEMP:  50;

AURORA         FAIR      41  27  57 SE12      30.14S
6HR MIN TEMP:  41; 6HR MAX TEMP:  50;

WAUKEGAN       FAIR      40  30  67 SE14G20   30.15S
6HR MIN TEMP:  40; 6HR MAX TEMP:  42;

DUPAGE AIRPORT FAIR      43  25  49 S14       30.14S
6HR MIN TEMP:  42; 6HR MAX TEMP:  50;

WHEELING       FAIR      44  24  45 S15G25    30.16F
6HR MIN TEMP:  44; 6HR MAX TEMP:  50;

NORTHERLY ISL    N/A     43  29  58 SE17        N/A
$$

LMZ740>746-170700-
SOUTHERN LAKE MICHIGAN

STATION/POSITION SKY/WX   TEMP    WIND        PRES    VSBY  WAVE
                          AIR SEA DIR/SP/G                  HT/PER
                          (F)     (DEG/KT/KT) (MB)    (MI)  (FT/S)
WAUKEGAN HARBOR            40     150/ 17/ 19 1022.4S
HARRISON CRIB              44     160/ 18/ 25   N/A
BURNHAM HARBOR             44     140/ 11/ 21   N/A
CALUMET HARBOR             44     150/ 12/ 16 1022.6S
MICHIGAN CITY              44     130/ 15/ 24   N/A
$$

ILZ025>027-034>036-040-047-049-050-058-095>099-170700-
WEST-CENTRAL ILLINOIS

CITY           SKY/WX    TMP DP  RH WIND       PRES   REMARKS
QUINCY         FAIR      49  25  39 S14       30.06R
$$

ILZ028>032-037-038-041>044-048-051>054-059>061-170700-
CENTRAL ILLINOIS

CITY           SKY/WX    TMP DP  RH WIND       PRES   REMARKS
DECATUR        FAIR      41  30  65 S10       30.16S
PEORIA         FAIR      47  29  49 S16G25    30.10S
6HR MIN TEMP:  47; 6HR MAX TEMP:  53;

SPRINGFIELD    FAIR      46  30  53 S13       30.13R
6HR MIN TEMP:  46; 6HR MAX TEMP:  53;

TAYLORVILLE    NOT AVBL
$$

ILZ033-039-045-046-055>057-062-063-170700-
EAST-CENTRAL ILLINOIS

CITY           SKY/WX    TMP DP  RH WIND       PRES   REMARKS
CHAMPAIGN      FAIR      34  28  79 SE7       30.17S WCI  28
MATTOON        FAIR      41  27  57 S7        30.18R
$$

ILZ079-100>102-170700-
SOUTHWEST ILLINOIS

CITY           SKY/WX    TMP DP  RH WIND       PRES   REMARKS
BELLEVILLE     FAIR      39  35  84 SE7       30.16S WCI  34
CAHOKIA*       FAIR      42  31  64 SE6       30.15S
$$

ILZ064>066-069>071-074>076-080>082-084>086-088>090-092>094-170700-
SOUTH-CENTRAL ILLINOIS

CITY           SKY/WX    TMP DP  RH WIND       PRES   REMARKS
CARBONDALE     FAIR      42  31  64 CALM      30.19R
6HR MIN TEMP:  42; 6HR MAX TEMP:  54;

MT. VERNON     FAIR      37  25  60 CALM      30.19S
$$

ILZ067-068-072-073-078-083-087-091-170700-
SOUTHEAST ILLINOIS

CITY           SKY/WX    TMP DP  RH WIND       PRES   REMARKS
ROBINSON*      FAIR      42  31  64 CALM      30.22R
$$

ABBREVIATIONS USED IN REMARKS
   TC - TEMPERATURE IN CELSIUS
  WCI - WIND CHILL INDEX
   HX - HEAT INDEX
  VSB - VISIBILITY
$$




USA.gov is the U.S. government's official web portal to all federal, state and local government web resources and services.